LDPE-1 (49818 NORAD) Tracking and Keplerian Element Data

This shows tracking and keplerian element data for the satellite.

Feedback or suggestion? Click here.




ElementValue
Catalog49818
NameLDPE-1
Epoch Orbit165
Epoch Day140.57422545
Epoch Year2022
RAAN100.6007
Inclination0.3747
Eccentricity5.11E-05
Argument of Perigee256.9598
Mean Anonmoly307.6479
Mean Motion1.01192047
Decay Rate-1E-07
L11 49818U 21118B 22140.57422545 -.00000010 00000+0 00000+0 0 9996
L22 49818 0.3747 100.6007 0000511 256.9598 307.6479 1.01192047 1651

Live tracking and technical data element details for LDPE-1 (NORAD 49818). LDPE-1 can be tracked NOW for your location showing map with azimuth and elevation plus other details from your city location.

Track the satellite on the map from your city or location and see movement details for azimuth, elevation, latitude, longitude, range, height, and movement on the map or in text.







IsCatalogInMostPopularTable: catalog: 49818, numindb: 29
Update: records affected: 1



GetName: 49818 LDPE-1

Hit Count: updated at: Mon, 23 May 2022 20:03:30 GMT